[[{"header":{"parameterUnit":"m.s-1","parameterCategory":1,"la1":30.2991,"la2":30.254,"lo1":-89.0895,"lo2":-89.0444,"dy":0.0017,"dx":0.0017,"nx":28,"ny":28,"refTime":"2025-03-17T09:00:00:Z","depth":0,"parameterNumber":2,"parameterNumberName":"U-component_of_WINDS"},"data":[0,0,0,0,0,0,0,0,0,0,0,0,0,0,0,0,0,0,0,0,0,0,0,0,0,0,0,0,0,0,0,0,0,0,0,0,0,0,0,0,0,0,0,0,0,0,0,0,0,0,0,0,0,0,0,0,0,0,0.3111,0.3111,0,0.3093,0.3093,0.3092,0.3037,0.3036,0.3035,0.3034,0.3019,0.3019,0.302,0,0,0,0,0,0,0,0,0,0,0,0,0,0.3101,0.3102,0.3111,0.3111,0.3111,0.3093,0.3093,0.3092,0.3037,0.3036,0.3034,0.3033,0.3018,0.3019,0.302,0,0,0,0,0,0,0,0,0,0,0,0,0,0.3097,0.3102,0.3111,0.3081,0.3078,0.3093,0.3093,0.3092,0.3038,0.3036,0.3034,0.3032,0.3018,0.3019,0.302,0.3064,0,0,0.3024,0.3024,0,0,0,0,0,0,0,0,0.3097,0.3097,0.3086,0.3083,0.308,0.3065,0.3084,0.3083,0.3038,0.3053,0.3033,0.3031,0.3036,0.3035,0.3036,0.3063,0.3063,0.3024,0.3024,0.3025,0.3025,0,0,0,0,0,0,0,0.3098,0.3098,0.3104,0.3086,0.3082,0.3069,0.3067,0.3083,0.3055,0.3052,0.3048,0.3046,0.3034,0.3035,0.3035,0.3062,0.3024,0.3025,0.3025,0.3026,0.3125,0.3127,0,0,0,0,0,0,0.3102,0.3098,0.3104,0.3103,0.3084,0.3071,0.3068,0.3072,0.3055,0.305,0.3048,0.3044,0.3034,0.3034,0.3035,0.3085,0.3025,0.3026,0.3027,0.3123,0.3126,0.3128,0,0,0,0,0,0,0.3102,0.3103,0.3105,0.31,0.3099,0.3073,0.3078,0.3073,0.3074,0.3052,0.3047,0.3054,0.3033,0.3033,0.3057,0.3084,0.3026,0.3027,0.3121,0.3124,0.3127,0.3187,0,0,0,0,0,0,0.3102,0.3103,0.3119,0.31,0.31,0.3127,0.308,0.3073,0.3075,0.307,0.3056,0.3052,0.3031,0.3056,0.3058,0.3085,0.3028,0.3119,0.3123,0.3126,0.3183,0.3192,0.32,0,0,0,0,0,0.3102,0.3137,0.312,0.3121,0.3118,0.3129,0.3128,0.3103,0.3078,0.3094,0.308,0.3053,0.308,0.3059,0.3061,0.3088,0.3117,0.3121,0.3126,0.3179,0.319,0.32,0,0,0,0,0,0,0.316,0.3134,0.3115,0.3145,0.3139,0.3119,0.3139,0.3115,0.3117,0.3112,0.3081,0.3078,0.3107,0.31,0.3076,0.313,0.3094,0.3099,0.3134,0.3144,0.3153,0.3155,0.3029,0,0,0,0,0,0.3177,0.3186,0.3163,0.3192,0.319,0.3165,0.3169,0.3149,0.3143,0.314,0.3128,0.3124,0.3131,0.3137,0.3143,0.3181,0.3178,0.3201,0.321,0.3217,0.3222,0.3243,0.3253,0.3143,0.3143,0.3143,0,0,0.3211,0.3198,0.3206,0.3204,0.3197,0.3209,0.3164,0.3178,0.3187,0.3143,0.3165,0.3156,0.3149,0.318,0.3193,0.3175,0.3252,0.3222,0.3228,0.323,0.3248,0.3259,0.3268,0.3146,0.3145,0.3145,0,0,0.328,0.327,0.3294,0.3288,0.3278,0.3261,0.3266,0.325,0.3242,0.3263,0.323,0.3241,0.3255,0.3251,0.3251,0.3319,0.3295,0.3321,0.3367,0.3387,0.3396,0.3403,0.3429,0.3438,0.3327,0.3327,0.3327,0,0.3324,0.3339,0.3309,0.3326,0.3326,0.3285,0.331,0.3306,0.3299,0.3301,0.328,0.3296,0.3289,0.3319,0.3336,0.3337,0.3344,0.3324,0.3397,0.3404,0.3411,0.3435,0.3444,0.333,0.333,0.3329,0.3329,0,0.3395,0.3406,0.3427,0.342,0.3423,0.3443,0.3417,0.3423,0.3404,0.3389,0.3412,0.3401,0.3405,0.341,0.3391,0.3438,0.3427,0.3402,0.3366,0.3425,0.3447,0.3456,0.3335,0.3334,0.3333,0.3332,0,0,0.3502,0.3477,0.3485,0.3482,0.3468,0.3477,0.3495,0.3497,0.3504,0.3501,0.3517,0.3529,0.3506,0.3506,0.3486,0.3504,0.356,0.3477,0.3476,0.3494,0.3612,0.3633,0.3644,0.3543,0.3544,0.3546,0.3613,0,0.3568,0.3598,0.3571,0.3607,0.3617,0.3579,0.3595,0.3589,0.3576,0.3584,0.357,0.358,0.3547,0.3547,0.3563,0.355,0.3583,0.3544,0.3559,0.356,0.3564,0.3655,0.3676,0.3741,0.3622,0.3623,0.3624,0,0.3649,0.3648,0.3685,0.3668,0.3672,0.3687,0.3687,0.3695,0.3688,0.3677,0.3677,0.3652,0.3671,0.3634,0.3661,0.3635,0.3639,0.3633,0.3635,0.3637,0.3597,0.3661,0.3761,0.3771,0.3637,0.3636,0.3635,0,0.3725,0.3733,0.3756,0.3754,0.3735,0.3747,0.374,0.373,0.3734,0.3734,0.3736,0.3739,0.3741,0.3744,0.3722,0.3697,0.3752,0.3713,0.3745,0.3745,0.3759,0.3759,0.3863,0.376,0.376,0.3759,0.3759,0,0.3802,0.3827,0.379,0.3804,0.383,0.38,0.3827,0.3816,0.3808,0.382,0.3787,0.38,0.3768,0.3778,0.3761,0.3786,0.3787,0.378,0.3775,0.3784,0.3785,0.3787,0.3783,0.3762,0.3761,0.3761,0.376,0,0.3892,0.3868,0.3891,0.3871,0.3866,0.3887,0.387,0.3883,0.3868,0.3884,0.3886,0.3862,0.3872,0.3849,0.3856,0.3845,0.3881,0.3868,0.3883,0.388,0.3914,0.3912,0.4025,0.4039,0.3925,0.3926,0.3927,0,0.3944,0.3962,0.3943,0.3949,0.3943,0.3952,0.3955,0.3925,0.393,0.3923,0.3937,0.3944,0.3948,0.3966,0.395,0.3955,0.3943,0.3983,0.3944,0.3953,0.3946,0.3946,0.3948,0.3991,0.3993,0.3994,0.3995,0,0.4039,0.4026,0.4031,0.4032,0.4035,0.4035,0.4032,0.4039,0.4007,0.4014,0.4023,0.4026,0.4032,0.404,0.4042,0.4036,0.4011,0.4006,0.4014,0.4024,0.4033,0.403,0.3907,0.4005,0.4004,0.4003,0.4002,0.4002,0.4113,0.4127,0.4116,0.4122,0.4117,0.4115,0.4126,0.4112,0.4118,0.4121,0.4103,0.4116,0.4109,0.4108,0.4104,0.4115,0.4098,0.4109,0.4112,0.4116,0.4122,0.403,0.4115,0.4115,0.4115,0.4114,0.4114,0,0.4207,0.4198,0.4204,0.4201,0.4206,0.418,0.4175,0.4182,0.4194,0.4188,0.4193,0.4204,0.4211,0.4195,0.42,0.4212,0.4201,0.4215,0.4214,0.4214,0.4137,0.413,0.4224,0.4224,0.4224,0.4224,0.4224,0.4224,0.4258,0.428,0.4266,0.4286,0.4277,0.4289,0.4289,0.4287,0.4283,0.4296,0.4301,0.429,0.4281,0.4285,0.4292,0.4287,0.4291,0.4309,0.4301,0.423,0.4219,0.4209,0.4202,0.431,0.431,0.4377,0.4378,0.4378]},{"header":{"parameterUnit":"m.s-1","parameterCategory":1,"la1":30.2991,"la2":30.254,"lo1":-89.0895,"lo2":-89.0444,"dy":0.0017,"dx":0.0017,"nx":28,"ny":28,"refTime":"2025-03-17T09:00:00:Z","depth":0,"parameterNumber":3,"parameterNumberName":"V-component_of_WINDS"},"data":[0,0,0,0,0,0,0,0,0,0,0,0,0,0,0,0,0,0,0,0,0,0,0,0,0,0,0,0,0,0,0,0,0,0,0,0,0,0,0,0,0,0,0,0,0,0,0,0,0,0,0,0,0,0,0,0,0,0,-0.3016,-0.3017,0,-0.3072,-0.3073,-0.3074,-0.312,-0.3121,-0.3121,-0.3122,-0.3182,-0.3183,-0.3185,0,0,0,0,0,0,0,0,0,0,0,0,0,-0.2951,-0.2952,-0.3016,-0.3017,-0.3018,-0.3072,-0.3073,-0.3074,-0.312,-0.3121,-0.3121,-0.3122,-0.3182,-0.3183,-0.3185,0,0,0,0,0,0,0,0,0,0,0,0,0,-0.2991,-0.2953,-0.3016,-0.3047,-0.3051,-0.3072,-0.3073,-0.3074,-0.312,-0.3121,-0.3121,-0.3122,-0.3182,-0.3183,-0.3185,-0.3181,0,0,-0.319,-0.3191,0,0,0,0,0,0,0,0,-0.2988,-0.2993,-0.3042,-0.3045,-0.3049,-0.309,-0.3072,-0.311,-0.312,-0.3094,-0.3122,-0.3122,-0.3151,-0.3156,-0.3165,-0.3184,-0.3187,-0.319,-0.3192,-0.3192,-0.3193,0,0,0,0,0,0,0,-0.2986,-0.2991,-0.3039,-0.3043,-0.3047,-0.3059,-0.3065,-0.308,-0.3118,-0.3096,-0.3099,-0.3105,-0.3153,-0.3163,-0.3166,-0.3188,-0.319,-0.3192,-0.3193,-0.3194,-0.3206,-0.3205,0,0,0,0,0,0,-0.2978,-0.2988,-0.3037,-0.304,-0.302,-0.306,-0.3067,-0.3076,-0.3118,-0.3125,-0.3105,-0.3107,-0.3159,-0.3164,-0.3169,-0.3166,-0.3192,-0.3194,-0.3195,-0.3207,-0.3206,-0.3205,0,0,0,0,0,0,-0.2976,-0.2982,-0.3034,-0.3015,-0.3023,-0.306,-0.307,-0.3077,-0.3086,-0.3124,-0.3132,-0.3107,-0.316,-0.3166,-0.3177,-0.3169,-0.3195,-0.3196,-0.3207,-0.3206,-0.3205,-0.3162,0,0,0,0,0,0,-0.2974,-0.2981,-0.2979,-0.3015,-0.3024,-0.3041,-0.307,-0.3077,-0.3089,-0.3093,-0.3128,-0.3135,-0.3161,-0.3174,-0.3179,-0.3172,-0.3198,-0.3208,-0.3207,-0.3206,-0.3164,-0.3159,-0.3155,0,0,0,0,0,-0.2972,-0.2966,-0.2979,-0.2984,-0.3022,-0.3041,-0.3046,-0.3075,-0.3088,-0.3087,-0.3111,-0.3134,-0.3169,-0.3175,-0.3181,-0.3174,-0.3209,-0.3207,-0.3206,-0.3166,-0.316,-0.3155,0,0,0,0,0,0,-0.293,-0.2971,-0.2986,-0.2991,-0.3012,-0.3048,-0.3048,-0.3068,-0.3086,-0.3089,-0.3126,-0.3134,-0.314,-0.3159,-0.3165,-0.3172,-0.3192,-0.3192,-0.316,-0.3155,-0.315,-0.3146,-0.3199,0,0,0,0,0,-0.2921,-0.2931,-0.2967,-0.2968,-0.2978,-0.3011,-0.302,-0.304,-0.3064,-0.3073,-0.3098,-0.3121,-0.3137,-0.3147,-0.3164,-0.3167,-0.3175,-0.3165,-0.3161,-0.3157,-0.3156,-0.3158,-0.3154,-0.32,-0.32,-0.32,0,0,-0.2903,-0.2927,-0.2931,-0.296,-0.2979,-0.2989,-0.3018,-0.3028,-0.3037,-0.3075,-0.3087,-0.3106,-0.3133,-0.314,-0.3144,-0.3155,-0.3145,-0.3155,-0.3151,-0.3153,-0.3156,-0.3152,-0.3148,-0.3199,-0.3199,-0.3199,0,0,-0.2876,-0.2895,-0.2897,-0.2915,-0.2942,-0.2964,-0.2964,-0.2997,-0.3011,-0.3023,-0.3051,-0.3062,-0.309,-0.3108,-0.3121,-0.3099,-0.312,-0.3103,-0.308,-0.3082,-0.3078,-0.3075,-0.3067,-0.3064,-0.3102,-0.3102,-0.3102,0,-0.285,-0.2867,-0.2896,-0.2904,-0.2916,-0.295,-0.2953,-0.2969,-0.3,-0.3008,-0.302,-0.3053,-0.3075,-0.3085,-0.308,-0.3089,-0.3091,-0.31,-0.3076,-0.3074,-0.3071,-0.3064,-0.3061,-0.31,-0.31,-0.3101,-0.3101,0,-0.2834,-0.2845,-0.2844,-0.2871,-0.2883,-0.2889,-0.292,-0.2928,-0.2947,-0.2968,-0.2979,-0.3006,-0.3028,-0.3032,-0.3052,-0.3046,-0.3052,-0.3069,-0.309,-0.3064,-0.3058,-0.3055,-0.3097,-0.3098,-0.3098,-0.3099,0,0,-0.2783,-0.2826,-0.2825,-0.2837,-0.2869,-0.2878,-0.2885,-0.2906,-0.2912,-0.2933,-0.2939,-0.2961,-0.2977,-0.2991,-0.3013,-0.3015,-0.2995,-0.3032,-0.3033,-0.3024,-0.2989,-0.2975,-0.2972,-0.3009,-0.3009,-0.3008,-0.2987,0,-0.276,-0.2774,-0.28,-0.2805,-0.2815,-0.2847,-0.2853,-0.2873,-0.2892,-0.2904,-0.2927,-0.2941,-0.2961,-0.297,-0.2973,-0.2996,-0.2988,-0.2998,-0.3016,-0.3017,-0.3008,-0.2969,-0.2954,-0.2933,-0.2984,-0.2984,-0.2984,0,-0.2736,-0.2753,-0.2758,-0.2788,-0.2794,-0.2798,-0.2819,-0.283,-0.2853,-0.2867,-0.2882,-0.2906,-0.2915,-0.2934,-0.2948,-0.2954,-0.2963,-0.2976,-0.2976,-0.2978,-0.2998,-0.297,-0.2927,-0.2923,-0.298,-0.2981,-0.2981,0,-0.2698,-0.2722,-0.2728,-0.2738,-0.2773,-0.2775,-0.279,-0.2814,-0.2825,-0.2843,-0.285,-0.2869,-0.288,-0.2895,-0.2923,-0.2934,-0.2934,-0.2955,-0.2946,-0.2945,-0.2944,-0.2944,-0.2901,-0.295,-0.295,-0.295,-0.295,0,-0.267,-0.2672,-0.2711,-0.2715,-0.2718,-0.2748,-0.2751,-0.2769,-0.279,-0.2798,-0.2827,-0.2834,-0.2871,-0.2883,-0.2905,-0.2913,-0.2918,-0.293,-0.2936,-0.2927,-0.2925,-0.2933,-0.2935,-0.295,-0.295,-0.295,-0.295,0,-0.2627,-0.2653,-0.2662,-0.2694,-0.2702,-0.2703,-0.273,-0.2736,-0.2756,-0.2766,-0.277,-0.2803,-0.2818,-0.2847,-0.2871,-0.2886,-0.2889,-0.29,-0.288,-0.2884,-0.2873,-0.2874,-0.2834,-0.283,-0.2881,-0.2881,-0.288,0,-0.2608,-0.261,-0.2641,-0.2648,-0.2661,-0.2672,-0.2682,-0.2712,-0.2722,-0.2748,-0.275,-0.2767,-0.2782,-0.2805,-0.2832,-0.285,-0.2861,-0.2846,-0.2864,-0.2855,-0.2861,-0.286,-0.286,-0.2842,-0.2841,-0.2841,-0.284,0,-0.257,-0.2583,-0.2596,-0.2612,-0.2623,-0.2638,-0.2655,-0.2659,-0.2693,-0.2703,-0.2718,-0.2729,-0.2752,-0.2769,-0.2791,-0.2808,-0.2829,-0.2834,-0.2833,-0.2824,-0.2813,-0.2818,-0.2869,-0.2835,-0.2835,-0.2836,-0.2836,-0.2836,-0.2539,-0.2542,-0.2564,-0.2577,-0.2592,-0.2607,-0.2613,-0.2633,-0.2646,-0.2666,-0.2683,-0.2696,-0.272,-0.2751,-0.2766,-0.2777,-0.2788,-0.2786,-0.2786,-0.2785,-0.2781,-0.281,-0.2781,-0.2782,-0.2782,-0.2782,-0.2782,0,-0.2503,-0.2518,-0.2529,-0.2551,-0.2561,-0.2579,-0.2598,-0.2606,-0.2617,-0.2636,-0.265,-0.2666,-0.2682,-0.2709,-0.2728,-0.2732,-0.2742,-0.2735,-0.2735,-0.2739,-0.2771,-0.277,-0.2726,-0.2726,-0.2726,-0.2726,-0.2727,-0.2727,-0.2485,-0.249,-0.2505,-0.2518,-0.2534,-0.2546,-0.2555,-0.2569,-0.2584,-0.2601,-0.2614,-0.2631,-0.2653,-0.2673,-0.2688,-0.2696,-0.2701,-0.2691,-0.2702,-0.2731,-0.2737,-0.2742,-0.2741,-0.2692,-0.2692,-0.2669,-0.2669,-0.2669]}]]